QBITO (42728 NORAD) Tracking and Keplerian Element Data

This shows tracking and keplerian element data for the satellite.

Feedback or suggestion? Click here.




ElementValue
Catalog42728
NameQBITO
Epoch Orbit8308
Epoch Day312.33323474
Epoch Year2018
RAAN333.8278
Inclination51.6332
Eccentricity0.0004963
Argument of Perigee48.7064
Mean Anonmoly311.4365
Mean Motion15.82781107
Decay Rate0.0007849
L11 42728U 98067MH 18312.33323474 .00078490 00000-0 36301-3 0 9991
L22 42728 51.6332 333.8278 0004963 48.7064 311.4365 15.82781107 83082

Live tracking and technical data element details for QBITO (NORAD 42728). QBITO can be tracked NOW for your location showing map with azimuth and elevation plus other details from your city location.

Track the satellite on the map from your city or location and see movement details for azimuth, elevation, latitude, longitude, range, height, and movement on the map or in text.







IsCatalogInMostPopularTable: catalog: 42728, numindb: 142
Update: records affected: 1



GetName: 42728 QBITO

Hit Count: updated at: Thu, 15 Nov 2018 04:01:14 GMT